PSLV R/B

Satellite information

Favourite Embed

Satellite Type and Status

ROCKET BODYIN ORBIT

Key statistics

Satellite PSLV R/B at a glance.

Uptime

9698

Days in orbit

Revolutions

≈ 14.6

Per day

Orbit

SSO

Sun Synchronous Orbit

Inclination

98.6

Latest

Satellite identification and parameters

Extended collection of information and parameters for PSLV R/B.

Object identification

Identified? True

Debris? False

Object name: PSLV R/B

International designator: 1999-029D

Object number (NORAD): 25759

Object ID (CCSDS): 25759

Country: INDIA (IND)

Current information (Y/N): Y

RCS size: LARGE

Orbital parameters

Period: 98.921 minutes

Inclination: 98.6355 deg

SMA: 7085.223 km

Apoapsis: 726.783 km

Periapsis: 687.394 km

RAAN: 10.7382 deg

Eccentricy: 0.00277966

Argument of periapsis: 101.5013 deg

Mean anomaly: 258.9307 deg

Mean motion: 14.55701935 rev/day

Mean motion (dot): 0.00000475 rev/day2

B* drag term: 0.00011948796 1/REarth

Two-line elements (TLE)

Creation date: Dec. 12, 2025, 10:14 a.m.

Reference frame: TEME

Reference center: EARTH

Epoch: Dec. 12, 2025, 7:34 a.m. UTC

TLE line 0: 0 PSLV R/B

TLE line 1: 1 25759U 99029D 25346.31528020 .00000475 00000-0 11949-3 0 9991

TLE line 2: 2 25759 98.6355 10.7382 0027797 101.5013 258.9307 14.55701935408073

Live tracking on map

Real-time ground track for satellite PSLV R/B.

In-orbit conjunctions

A list of the most updated potential collisions computed for object PSLV R/B.

Target Orbit TCA Probability of collision Miss distance Type
THOR ABLESTAR DEB LEO 2025-11-30 17:17:33 0.0002297815 284.0 (m) DEBRIS
NOAA 16 DEB SSO 2024-12-18 15:45:47 0.0001008034 170.0 (m) DEBRIS
MAST SSO 2024-08-11 00:08:23 0.000191879 134.0 (m) PAYLOAD
NOAA 16 DEB SSO 2024-06-26 08:23:43 0.0001048371 92.0 (m) DEBRIS

Associated space launch

IRS-P4 (Indian Remote Sensing Satellite) or Oceansat is the first indian satellite primarily built for Ocean applications. Kitsat (Korean Institute of Technology Satellite 3), renamed on orbit as Uribyol 3, was the first Korean satellite in true sense and was launched by an Indian PSLV-G (2) rocket in May 1999.

PSLV R/B was lifted into orbit during the mission ‘PSLV | IRS-P4 & Uribyol-3’, on board a PSLV space rocket.

The launch took place on May 26, 1999, 6:22 a.m. from Satish Dhawan Space Centre First Launch Pad.

For more information about the launch, click the button.

Launch to space PSLV | IRS-P4 & Uribyol-3
PSLV | IRS-P4 & Uribyol-3

Agency: N/A

Status: Launch Successful

Launch date: May 26, 1999, 6:22 a.m. UTC

Rocket: PSLV

Launch pad: Satish Dhawan Space Centre First Launch Pad

Location: Satish Dhawan Space Centre, India

...

Latest news about this satellite

There are no fresh news available about this satellite. Check back as we update our databases every day.


Newsletter sign-up

Weekly statistics, charts and insights to help you stay on top of the space industry.